This is the latest recevied weather packets stored in our database for station/object N1HQ. If no packets are shown the sender has not sent any weather packets the latest 1 day(s).
| Time | Temp. | Humidity | Pressure | Rain* | Wind** | Luminosity | Snow |
|---|---|---|---|---|---|---|---|
| 1778008173 | 27.78° C | 63% | 1013.2 hPa | 0 mm | 1.79 m/s, 188° | - | - |
| 1778007873 | 27.78° C | 64% | 1013.5 hPa | 0 mm | 1.79 m/s, 155° | - | - |
| 1778007573 | 27.78° C | 67% | 1013.6 hPa | 0 mm | 1.79 m/s, 158° | - | - |
| 1778007288 | 27.78° C | 66% | 1013.7 hPa | 0 mm | 1.34 m/s, 82° | - | - |
| 1778007038 | 27.22° C | 64% | 1013.6 hPa | 0 mm | 1.79 m/s, 115° | - | - |
| 1778006753 | 27.22° C | 65% | 1013.7 hPa | 0 mm | 1.79 m/s, 221° | - | - |
| 1778006495 | 27.78° C | 65% | 1013.8 hPa | 0 mm | 1.79 m/s, 167° | - | - |
| 1778006243 | 27.78° C | 66% | 1013.7 hPa | 0 mm | 1.79 m/s, 138° | - | - |
| 1778005967 | 27.22° C | 66% | 1013.7 hPa | 0 mm | 1.79 m/s, 161° | - | - |
| 1778005723 | 27.78° C | 66% | 1013.6 hPa | 0 mm | 1.79 m/s, 155° | - | - |
| 1778005422 | 27.22° C | 65% | 1013.7 hPa | 0 mm | 1.79 m/s, 131° | - | - |
| 1778005168 | 27.22° C | 66% | 1013.5 hPa | 0 mm | 1.79 m/s, 180° | - | - |
| 1778004883 | 26.67° C | 68% | 1013.5 hPa | 0 mm | 1.79 m/s, 163° | - | - |
| 1778004613 | 26.67° C | 68% | 1013.6 hPa | 0 mm | 1.79 m/s, 169° | - | - |
| 1778004353 | 26.11° C | 67% | 1013.6 hPa | 0 mm | 1.79 m/s, 188° | - | - |
| 1778004093 | 26.11° C | 67% | 1013.7 hPa | 0 mm | 1.79 m/s, 164° | - | - |
| 1778003845 | 26.67° C | 66% | 1013.7 hPa | 0 mm | 1.79 m/s, 129° | - | - |
| 1778003583 | 27.22° C | 66% | 1013.7 hPa | 0 mm | 1.79 m/s, 168° | - | - |
| 1778003283 | 27.22° C | 66% | 1013.7 hPa | 0 mm | 1.79 m/s, 94° | - | - |
| 1778003023 | 27.22° C | 66% | 1013.8 hPa | 0 mm | 1.79 m/s, 129° | - | - |
| 1778002768 | 26.67° C | 67% | 1014 hPa | 0 mm | 1.79 m/s, 167° | - | - |
| 1778002525 | 26.67° C | 66% | 1014 hPa | 0 mm | 1.79 m/s, 207° | - | - |
| 1778002228 | 26.67° C | 66% | 1014 hPa | 0 mm | 1.79 m/s, 161° | - | - |
| 1778001983 | 26.11° C | 66% | 1014 hPa | 0 mm | 1.79 m/s, 198° | - | - |
| 1778001738 | 26.11° C | 65% | 1014 hPa | 0 mm | 1.79 m/s, 114° | - | - |
* Rain latest hour (hover to see other rain measurements)
** Current wind speed in m/s (hover to see current wind gust speed)